• In Uzbekistan
  • List of Countries
  • For 7 days
  • Water Temperature
  • Satellite Maps
  • Weather Map
  • Weather Widgets
  • user-avatar
    Login

    Hourly Weather Balho

    Today, 18 October, Thursday

    Time Temperature Precipitation Wind Pressure Humidity
    00:00 +33°C° 0 mm 5 mps 735 mmHg 60%
    01:00 +32°C° 0 mm 5 mps 734 mmHg 62%
    02:00 +32°C° 0 mm 5 mps 734 mmHg 63%
    03:00 +32°C° 0 mm 4 mps 734 mmHg 64%
    04:00 +30°C° 0 mm 4 mps 734 mmHg 65%
    05:00 +30°C° 0 mm 4 mps 735 mmHg 66%
    06:00 +30°C° 0 mm 4 mps 735 mmHg 68%
    07:00 +32°C° 0 mm 4 mps 735 mmHg 63%
    08:00 +33°C° 0 mm 4 mps 735 mmHg 58%
    09:00 +34°C° 0 mm 5 mps 736 mmHg 54%
    10:00 +35°C° 0 mm 5 mps 736 mmHg 49%
    11:00 +36°C° 0 mm 5 mps 735 mmHg 44%
    12:00 +37°C° 0 mm 5 mps 735 mmHg 39%
    13:00 +39°C° 0 mm 5 mps 734 mmHg 38%
    14:00 +39°C° 0 mm 5 mps 734 mmHg 37%
    15:00 +39°C° 0 mm 5 mps 733 mmHg 37%
    16:00 +38°C° 0 mm 6 mps 733 mmHg 40%
    17:00 +36°C° 0 mm 6 mps 733 mmHg 44%
    18:00 +35°C° 0 mm 6 mps 733 mmHg 48%
    19:00 +35°C° 0 mm 6 mps 733 mmHg 51%
    20:00 +34°C° 0 mm 6 mps 734 mmHg 54%
    21:00 +33°C° 0 mm 6 mps 734 mmHg 57%
    22:00 +33°C° 0 mm 5 mps 734 mmHg 58%
    23:00 +33°C° 0 mm 5 mps 734 mmHg 60%

    Tomorrow, 19 October, Friday

    Time Temperature Precipitation Wind Pressure Humidity
    00:00 +32°C° 0 mm 5 mps 735 mmHg 61%
    01:00 +32°C° 0 mm 4 mps 734 mmHg 61%
    02:00 +32°C° 0 mm 4 mps 734 mmHg 61%
    03:00 +31°C° 0 mm 3 mps 734 mmHg 61%
    04:00 +31°C° 0 mm 3 mps 734 mmHg 62%
    05:00 +32°C° 0 mm 4 mps 734 mmHg 62%
    06:00 +32°C° 0 mm 4 mps 735 mmHg 62%
    07:00 +32°C° 0.4 mm 4 mps 735 mmHg 58%
    08:00 +33°C° 0.4 mm 4 mps 736 mmHg 54%
    09:00 +34°C° 0.4 mm 4 mps 737 mmHg 50%
    10:00 +35°C° 0.5 mm 5 mps 736 mmHg 47%
    11:00 +36°C° 0.5 mm 5 mps 736 mmHg 44%
    12:00 +37°C° 0.5 mm 5 mps 736 mmHg 40%
    13:00 +37°C° 0.1 mm 5 mps 735 mmHg 41%
    14:00 +37°C° 0.1 mm 5 mps 735 mmHg 41%
    15:00 +37°C° 0.1 mm 5 mps 734 mmHg 42%
    16:00 +36°C° 0.3 mm 4 mps 734 mmHg 44%
    17:00 +35°C° 0.3 mm 4 mps 734 mmHg 46%
    18:00 +35°C° 0.3 mm 4 mps 734 mmHg 48%
    19:00 +35°C° 0.2 mm 4 mps 734 mmHg 50%
    20:00 +34°C° 0.2 mm 4 mps 735 mmHg 52%
    21:00 +34°C° 0.2 mm 4 mps 736 mmHg 53%
    22:00 +33°C° 0 mm 4 mps 736 mmHg 55%
    23:00 +33°C° 0 mm 4 mps 736 mmHg 57%

    Day after tomorrow, 20 October, Saturday

    Time Temperature Precipitation Wind Pressure Humidity
    00:00 +33°C° 0 mm 4 mps 735 mmHg 58%
    01:00 +32°C° 0 mm 4 mps 735 mmHg 59%
    02:00 +31°C° 0 mm 3 mps 735 mmHg 61%
    03:00 +31°C° 0 mm 3 mps 734 mmHg 62%
    04:00 +31°C° 0 mm 3 mps 735 mmHg 62%
    05:00 +30°C° 0 mm 3 mps 735 mmHg 63%
    06:00 +30°C° 0 mm 2 mps 736 mmHg 64%
    07:00 +31°C° 0.5 mm 3 mps 736 mmHg 59%
    08:00 +33°C° 0.5 mm 3 mps 737 mmHg 55%
    09:00 +34°C° 0.5 mm 4 mps 737 mmHg 50%
    10:00 +35°C° 0 mm 4 mps 737 mmHg 46%
    11:00 +36°C° 0 mm 5 mps 737 mmHg 42%
    12:00 +37°C° 0 mm 5 mps 737 mmHg 38%
    13:00 +37°C° 0 mm 5 mps 736 mmHg 37%
    14:00 +38°C° 0 mm 4 mps 735 mmHg 37%
    15:00 +38°C° 0 mm 4 mps 734 mmHg 36%
    16:00 +37°C° 0.1 mm 4 mps 734 mmHg 38%
    17:00 +37°C° 0.1 mm 4 mps 734 mmHg 40%
    18:00 +36°C° 0.1 mm 4 mps 735 mmHg 42%
    19:00 +35°C° 0 mm 4 mps 735 mmHg 46%
    20:00 +35°C° 0 mm 4 mps 736 mmHg 49%
    21:00 +34°C° 0 mm 4 mps 736 mmHg 53%
    22:00 +34°C° 0 mm 4 mps 736 mmHg 55%
    23:00 +33°C° 0 mm 4 mps 736 mmHg 58%

    21 October, Sunday

    Time Temperature Precipitation Wind Pressure Humidity
    00:00 +33°C° 0 mm 4 mps 736 mmHg 61%
    01:00 +31°C° 0 mm 3 mps 735 mmHg 62%
    02:00 +31°C° 0 mm 3 mps 735 mmHg 64%
    03:00 +31°C° 0 mm 3 mps 735 mmHg 65%
    04:00 +30°C° 0.2 mm 3 mps 735 mmHg 67%
    05:00 +30°C° 0.2 mm 3 mps 736 mmHg 68%
    06:00 +30°C° 0.2 mm 3 mps 736 mmHg 69%
    07:00 +31°C° 0.5 mm 3 mps 737 mmHg 65%
    08:00 +33°C° 0.5 mm 4 mps 737 mmHg 60%
    09:00 +33°C° 0.5 mm 4 mps 738 mmHg 56%
    10:00 +34°C° 0.4 mm 4 mps 737 mmHg 52%
    11:00 +35°C° 0.4 mm 5 mps 737 mmHg 48%
    12:00 +36°C° 0.4 mm 5 mps 737 mmHg 44%
    13:00 +36°C° 0.1 mm 5 mps 736 mmHg 43%
    14:00 +37°C° 0.1 mm 5 mps 735 mmHg 42%
    15:00 +37°C° 0.1 mm 4 mps 735 mmHg 41%
    16:00 +36°C° 0 mm 4 mps 735 mmHg 44%
    17:00 +36°C° 0 mm 5 mps 735 mmHg 46%
    18:00 +35°C° 0 mm 5 mps 735 mmHg 49%
    19:00 +34°C° 0 mm 5 mps 736 mmHg 53%
    20:00 +34°C° 0 mm 5 mps 736 mmHg 58%
    21:00 +33°C° 0 mm 5 mps 737 mmHg 62%
    22:00 +32°C° 0 mm 5 mps 736 mmHg 63%
    23:00 +32°C° 0 mm 5 mps 736 mmHg 65%

    22 October, Monday

    Time Temperature Precipitation Wind Pressure Humidity
    00:00 +32°C° 0 mm 4 mps 736 mmHg 66%
    01:00 +30°C° 0 mm 4 mps 736 mmHg 68%
    02:00 +30°C° 0 mm 4 mps 735 mmHg 69%
    03:00 +30°C° 0 mm 4 mps 735 mmHg 70%
    04:00 +30°C° 0 mm 3 mps 736 mmHg 71%
    05:00 +29°C° 0 mm 3 mps 736 mmHg 72%
    06:00 +29°C° 0 mm 3 mps 736 mmHg 72%
    07:00 +30°C° 0 mm 3 mps 737 mmHg 68%
    08:00 +32°C° 0 mm 4 mps 737 mmHg 63%
    09:00 +33°C° 0 mm 4 mps 738 mmHg 59%
    10:00 +34°C° 0.6 mm 4 mps 737 mmHg 54%
    11:00 +35°C° 0.6 mm 4 mps 737 mmHg 50%
    12:00 +36°C° 0.6 mm 4 mps 736 mmHg 45%
    13:00 +36°C° 0.1 mm 4 mps 736 mmHg 45%
    14:00 +36°C° 0.1 mm 4 mps 735 mmHg 44%
    15:00 +36°C° 0.1 mm 4 mps 734 mmHg 44%
    16:00 +36°C° 0 mm 5 mps 735 mmHg 47%
    17:00 +35°C° 0 mm 5 mps 735 mmHg 50%
    18:00 +34°C° 0 mm 5 mps 735 mmHg 53%
    19:00 +34°C° 0 mm 5 mps 736 mmHg 57%
    20:00 +33°C° 0 mm 5 mps 736 mmHg 60%
    21:00 +32°C° 0 mm 5 mps 736 mmHg 63%
    22:00 +32°C° 0 mm 5 mps 736 mmHg 65%
    23:00 +30°C° 0 mm 5 mps 736 mmHg 66%

    23 October, Tuesday

    Time Temperature Precipitation Wind Pressure Humidity
    00:00 +30°C° 0 mm 5 mps 736 mmHg 68%
    01:00 +30°C° 0 mm 5 mps 736 mmHg 69%
    02:00 +30°C° 0 mm 4 mps 736 mmHg 70%
    03:00 +29°C° 0 mm 4 mps 736 mmHg 71%
    04:00 +29°C° 0 mm 4 mps 736 mmHg 71%
    05:00 +29°C° 0 mm 4 mps 737 mmHg 71%
    06:00 +29°C° 0 mm 4 mps 737 mmHg 72%
    07:00 +30°C° 0 mm 4 mps 738 mmHg 68%
    08:00 +32°C° 0 mm 5 mps 738 mmHg 64%
    09:00 +32°C° 0 mm 5 mps 738 mmHg 60%
    10:00 +33°C° 0 mm 5 mps 738 mmHg 55%
    11:00 +35°C° 0 mm 5 mps 737 mmHg 50%
    12:00 +36°C° 0 mm 5 mps 737 mmHg 45%
    13:00 +36°C° 0 mm 5 mps 736 mmHg 43%
    14:00 +38°C° 0 mm 6 mps 736 mmHg 42%
    15:00 +38°C° 0 mm 6 mps 735 mmHg 41%
    16:00 +36°C° 0 mm 6 mps 735 mmHg 44%
    17:00 +35°C° 0 mm 6 mps 735 mmHg 48%
    18:00 +34°C° 0 mm 6 mps 735 mmHg 51%
    19:00 +33°C° 0 mm 6 mps 736 mmHg 55%
    20:00 +33°C° 0 mm 5 mps 736 mmHg 58%
    21:00 +32°C° 0 mm 5 mps 736 mmHg 61%
    22:00 +32°C° 0 mm 5 mps 736 mmHg 62%
    23:00 +30°C° 0 mm 4 mps 736 mmHg 64%
    Show more